Time,TemperatureF,DewpointF,PressureIn,WindDirection,WindDirectionDegrees,WindSpeedMPH,WindSpeedGustMPH,Humidity,HourlyPrecipIn,Conditions,Clouds,dailyrainin,SoftwareType,DateUTC
2013-11-16 00:01:00,48.0,48.0,30.03,South,180,6.0,10.0,100,0.00,,,0.00,Weather View 32 v70,2013-11-16 05:01:00,
2013-11-16 00:02:00,48.0,48.0,30.03,SSE,157,3.0,10.0,100,0.00,,,0.00,Weather View 32 v70,2013-11-16 05:02:00,
2013-11-16 00:07:00,48.0,48.0,30.03,SSE,157,4.0,10.0,100,0.00,,,0.00,Weather View 32 v70,2013-11-16 05:07:00,
2013-11-16 00:12:00,48.0,48.0,30.03,SE,135,6.0,10.0,100,0.00,,,0.00,Weather View 32 v70,2013-11-16 05:12:00,
2013-11-16 00:17:00,48.0,48.0,30.03,South,180,4.0,10.0,100,0.00,,,0.00,Weather View 32 v70,2013-11-16 05:17:00,
2013-11-16 00:22:00,48.0,48.0,30.03,SE,135,1.0,10.0,100,0.00,,,0.00,Weather View 32 v70,2013-11-16 05:22:00,
2013-11-16 00:27:00,48.0,48.0,30.03,SE,135,6.0,10.0,100,0.00,,,0.00,Weather View 32 v70,2013-11-16 05:27:00,
2013-11-16 00:32:00,48.0,48.0,30.03,SE,135,2.0,10.0,100,0.00,,,0.00,Weather View 32 v70,2013-11-16 05:32:00,
2013-11-16 00:37:00,48.0,48.0,30.03,SSE,157,6.0,10.0,100,0.00,,,0.00,Weather View 32 v70,2013-11-16 05:37:00,
2013-11-16 00:42:00,48.0,48.0,30.03,SE,135,0.0,10.0,100,0.00,,,0.00,Weather View 32 v70,2013-11-16 05:42:00,
2013-11-16 00:47:00,48.0,48.0,30.03,SSE,157,6.0,9.0,100,0.00,,,0.00,Weather View 32 v70,2013-11-16 05:47:00,
2013-11-16 00:52:00,48.0,48.0,30.03,SE,135,4.0,9.0,100,0.00,,,0.00,Weather View 32 v70,2013-11-16 05:52:00,
2013-11-16 00:57:00,48.0,48.0,30.03,SSE,157,5.0,9.0,100,0.00,,,0.00,Weather View 32 v70,2013-11-16 05:57:00,
2013-11-16 01:02:00,48.0,48.0,30.03,SSE,157,2.0,9.0,100,0.00,,,0.00,Weather View 32 v70,2013-11-16 06:02:00,
2013-11-16 01:07:00,48.0,48.0,30.02,SSE,157,3.0,9.0,100,0.00,,,0.00,Weather View 32 v70,2013-11-16 06:07:00,
2013-11-16 01:12:00,48.0,48.0,30.02,SE,135,2.0,9.0,100,0.00,,,0.00,Weather View 32 v70,2013-11-16 06:12:00,
2013-11-16 01:17:00,48.0,48.0,30.02,SSE,157,3.0,10.0,100,0.00,,,0.00,Weather View 32 v70,2013-11-16 06:17:00,
2013-11-16 01:22:00,48.0,48.0,30.02,SE,135,2.0,10.0,100,0.00,,,0.00,Weather View 32 v70,2013-11-16 06:22:00,
2013-11-16 01:27:00,48.0,48.0,30.02,SSE,157,1.0,10.0,100,0.00,,,0.00,Weather View 32 v70,2013-11-16 06:27:00,
2013-11-16 01:32:00,48.0,48.0,30.02,SSE,157,6.0,10.0,100,0.00,,,0.00,Weather View 32 v70,2013-11-16 06:32:00,
2013-11-16 01:37:00,48.0,48.0,30.02,South,180,2.0,10.0,100,0.00,,,0.00,Weather View 32 v70,2013-11-16 06:37:00,
2013-11-16 01:42:00,48.0,48.0,30.02,SSE,157,2.0,10.0,100,0.00,,,0.00,Weather View 32 v70,2013-11-16 06:42:00,
2013-11-16 01:47:00,48.0,48.0,30.02,SE,135,3.0,10.0,100,0.00,,,0.00,Weather View 32 v70,2013-11-16 06:47:00,
2013-11-16 01:52:00,49.0,49.0,30.01,SSE,157,2.0,10.0,100,0.00,,,0.00,Weather View 32 v70,2013-11-16 06:52:00,
2013-11-16 01:57:00,49.0,49.0,30.01,SE,135,3.0,10.0,100,0.00,,,0.00,Weather View 32 v70,2013-11-16 06:57:00,
2013-11-16 02:02:00,49.0,49.0,30.01,SSE,157,3.0,10.0,100,0.00,,,0.00,Weather View 32 v70,2013-11-16 07:02:00,
2013-11-16 02:07:00,49.0,49.0,30.01,SSE,157,6.0,10.0,100,0.00,,,0.00,Weather View 32 v70,2013-11-16 07:07:00,
2013-11-16 02:12:00,49.0,49.0,30.01,SSE,157,2.0,10.0,100,0.00,,,0.00,Weather View 32 v70,2013-11-16 07:12:00,
2013-11-16 02:17:00,49.0,49.0,30.01,SSE,157,2.0,9.0,100,0.00,,,0.00,Weather View 32 v70,2013-11-16 07:17:00,
2013-11-16 02:22:00,49.0,49.0,30.01,SSE,157,4.0,9.0,100,0.00,,,0.00,Weather View 32 v70,2013-11-16 07:22:00,
2013-11-16 02:27:00,49.0,49.0,30.01,SSE,157,4.0,9.0,100,0.00,,,0.00,Weather View 32 v70,2013-11-16 07:27:00,
2013-11-16 02:32:00,49.0,49.0,30.01,SSE,157,4.0,9.0,100,0.00,,,0.00,Weather View 32 v70,2013-11-16 07:32:00,
2013-11-16 02:37:00,49.0,49.0,30.02,SSE,157,2.0,9.0,100,0.00,,,0.00,Weather View 32 v70,2013-11-16 07:37:00,
2013-11-16 02:42:00,49.0,49.0,30.02,South,180,6.0,9.0,100,0.00,,,0.00,Weather View 32 v70,2013-11-16 07:42:00,
2013-11-16 02:47:00,49.0,49.0,30.02,SSE,157,3.0,9.0,100,0.00,,,0.00,Weather View 32 v70,2013-11-16 07:47:00,
2013-11-16 02:52:00,49.0,49.0,30.02,South,180,2.0,9.0,100,0.00,,,0.00,Weather View 32 v70,2013-11-16 07:52:00,
2013-11-16 02:57:00,49.0,49.0,30.02,SSE,157,2.0,9.0,100,0.00,,,0.00,Weather View 32 v70,2013-11-16 07:57:00,
2013-11-16 03:02:00,49.0,49.0,30.02,SSE,157,5.0,9.0,100,0.00,,,0.00,Weather View 32 v70,2013-11-16 08:02:00,
2013-11-16 03:07:00,49.0,49.0,30.01,SSW,202,0.0,9.0,100,0.00,,,0.00,Weather View 32 v70,2013-11-16 08:07:00,
2013-11-16 03:12:00,49.0,49.0,30.01,SE,135,2.0,8.0,100,0.00,,,0.00,Weather View 32 v70,2013-11-16 08:12:00,
2013-11-16 03:17:00,49.0,49.0,30.01,SE,135,3.0,8.0,100,0.00,,,0.00,Weather View 32 v70,2013-11-16 08:17:00,
2013-11-16 03:22:00,49.0,49.0,30.01,SE,135,6.0,8.0,100,0.00,,,0.00,Weather View 32 v70,2013-11-16 08:22:00,
2013-11-16 03:27:00,49.0,49.0,30.01,SSE,157,2.0,8.0,100,0.00,,,0.00,Weather View 32 v70,2013-11-16 08:27:00,
2013-11-16 03:32:00,49.0,49.0,30.01,SE,135,2.0,8.0,100,0.00,,,0.00,Weather View 32 v70,2013-11-16 08:32:00,
2013-11-16 03:37:00,49.0,49.0,30.01,SSE,157,2.0,8.0,100,0.00,,,0.00,Weather View 32 v70,2013-11-16 08:37:00,
2013-11-16 03:42:00,49.0,49.0,30.01,ESE,112,2.0,8.0,100,0.00,,,0.00,Weather View 32 v70,2013-11-16 08:42:00,
2013-11-16 03:47:00,49.0,49.0,30.01,SE,135,3.0,8.0,100,0.00,,,0.00,Weather View 32 v70,2013-11-16 08:47:00,
2013-11-16 03:52:00,49.0,49.0,30.00,SE,135,5.0,8.0,100,0.00,,,0.00,Weather View 32 v70,2013-11-16 08:52:00,
2013-11-16 03:57:00,49.0,49.0,30.00,SE,135,3.0,8.0,100,0.00,,,0.00,Weather View 32 v70,2013-11-16 08:57:00,
2013-11-16 04:02:00,49.0,49.0,30.01,SE,135,5.0,8.0,100,0.00,,,0.00,Weather View 32 v70,2013-11-16 09:02:00,
2013-11-16 04:07:00,50.0,50.0,30.01,SE,135,0.0,7.0,100,0.00,,,0.00,Weather View 32 v70,2013-11-16 09:07:00,
2013-11-16 04:12:00,49.0,49.0,30.01,South,180,2.0,7.0,100,0.00,,,0.00,Weather View 32 v70,2013-11-16 09:12:00,
2013-11-16 04:17:00,49.0,49.0,30.01,SSE,157,4.0,7.0,100,0.00,,,0.00,Weather View 32 v70,2013-11-16 09:17:00,
2013-11-16 04:22:00,50.0,50.0,30.01,SSE,157,6.0,8.0,100,0.00,,,0.00,Weather View 32 v70,2013-11-16 09:22:00,
2013-11-16 04:27:00,50.0,50.0,30.01,South,180,5.0,9.0,100,0.00,,,0.00,Weather View 32 v70,2013-11-16 09:27:00,
2013-11-16 04:32:00,50.0,50.0,30.01,SSE,157,0.0,9.0,100,0.00,,,0.00,Weather View 32 v70,2013-11-16 09:32:00,
2013-11-16 04:37:00,50.0,50.0,30.01,South,180,0.0,9.0,100,0.00,,,0.00,Weather View 32 v70,2013-11-16 09:37:00,
2013-11-16 04:42:00,50.0,50.0,30.01,SSW,202,3.0,9.0,100,0.00,,,0.00,Weather View 32 v70,2013-11-16 09:42:00,
2013-11-16 04:47:00,50.0,50.0,30.01,South,180,1.0,9.0,100,0.00,,,0.00,Weather View 32 v70,2013-11-16 09:47:00,
2013-11-16 04:52:00,50.0,50.0,30.01,SSE,157,0.0,9.0,100,0.00,,,0.00,Weather View 32 v70,2013-11-16 09:52:00,
2013-11-16 04:57:00,50.0,50.0,30.01,South,180,4.0,9.0,100,0.00,,,0.00,Weather View 32 v70,2013-11-16 09:57:00,
2013-11-16 05:02:00,50.0,50.0,30.01,SSE,157,2.0,9.0,100,0.00,,,0.00,Weather View 32 v70,2013-11-16 10:02:00,
2013-11-16 05:07:00,50.0,50.0,30.02,SE,135,6.0,9.0,100,0.00,,,0.00,Weather View 32 v70,2013-11-16 10:07:00,
2013-11-16 05:12:00,50.0,50.0,30.02,South,180,3.0,9.0,100,0.00,,,0.00,Weather View 32 v70,2013-11-16 10:12:00,
2013-11-16 05:17:00,50.0,50.0,30.02,SSE,157,3.0,9.0,100,0.00,,,0.00,Weather View 32 v70,2013-11-16 10:17:00,
2013-11-16 05:22:00,50.0,50.0,30.02,SE,135,0.0,9.0,100,0.00,,,0.00,Weather View 32 v70,2013-11-16 10:22:00,
2013-11-16 05:27:00,50.0,50.0,30.01,South,180,4.0,8.0,100,0.00,,,0.00,Weather View 32 v70,2013-11-16 10:27:00,
2013-11-16 05:32:00,50.0,50.0,30.01,SE,135,0.0,8.0,100,0.00,,,0.00,Weather View 32 v70,2013-11-16 10:32:00,
2013-11-16 05:37:00,50.0,50.0,30.01,SSE,157,4.0,8.0,100,0.00,,,0.00,Weather View 32 v70,2013-11-16 10:37:00,
2013-11-16 05:42:00,50.0,50.0,30.01,SSE,157,6.0,8.0,100,0.00,,,0.00,Weather View 32 v70,2013-11-16 10:42:00,
2013-11-16 05:47:00,50.0,50.0,30.02,SSW,202,1.0,9.0,100,0.00,,,0.00,Weather View 32 v70,2013-11-16 10:47:00,
2013-11-16 05:52:00,50.0,50.0,30.02,South,180,2.0,9.0,100,0.00,,,0.00,Weather View 32 v70,2013-11-16 10:52:00,
2013-11-16 05:57:00,50.0,50.0,30.02,South,180,4.0,9.0,100,0.00,,,0.00,Weather View 32 v70,2013-11-16 10:57:00,
2013-11-16 06:02:00,50.0,50.0,30.02,SSE,157,5.0,9.0,100,0.00,,,0.00,Weather View 32 v70,2013-11-16 11:02:00,
2013-11-16 06:07:00,50.0,50.0,30.02,SSE,157,3.0,9.0,100,0.00,,,0.00,Weather View 32 v70,2013-11-16 11:07:00,
2013-11-16 06:12:00,50.0,50.0,30.02,SSE,157,6.0,9.0,100,0.00,,,0.00,Weather View 32 v70,2013-11-16 11:12:00,
2013-11-16 06:17:00,50.0,50.0,30.02,SE,135,1.0,9.0,100,0.00,,,0.00,Weather View 32 v70,2013-11-16 11:17:00,
2013-11-16 06:22:00,50.0,50.0,30.01,SE,135,2.0,9.0,100,0.00,,,0.00,Weather View 32 v70,2013-11-16 11:22:00,
2013-11-16 06:27:00,50.0,50.0,30.01,SE,135,7.0,9.0,100,0.00,,,0.00,Weather View 32 v70,2013-11-16 11:27:00,
2013-11-16 06:32:00,50.0,50.0,30.01,SSE,157,1.0,9.0,100,0.00,,,0.00,Weather View 32 v70,2013-11-16 11:32:00,
2013-11-16 06:37:00,50.0,50.0,30.01,SE,135,0.0,9.0,100,0.00,,,0.00,Weather View 32 v70,2013-11-16 11:37:00,
2013-11-16 06:42:00,50.0,50.0,30.02,South,180,5.0,9.0,100,0.00,,,0.00,Weather View 32 v70,2013-11-16 11:42:00,
2013-11-16 06:47:00,50.0,50.0,30.02,South,180,1.0,9.0,100,0.00,,,0.00,Weather View 32 v70,2013-11-16 11:47:00,
2013-11-16 06:52:00,50.0,50.0,30.03,SE,135,4.0,9.0,100,0.00,,,0.00,Weather View 32 v70,2013-11-16 11:52:00,
2013-11-16 06:57:00,50.0,50.0,30.03,SSE,157,1.0,9.0,100,0.00,,,0.00,Weather View 32 v70,2013-11-16 11:57:00,
2013-11-16 07:02:00,50.0,50.0,30.02,SSE,157,3.0,9.0,100,0.00,,,0.00,Weather View 32 v70,2013-11-16 12:02:00,
2013-11-16 07:07:00,50.0,50.0,30.02,South,180,3.0,9.0,100,0.00,,,0.00,Weather View 32 v70,2013-11-16 12:07:00,
2013-11-16 07:12:00,50.0,50.0,30.03,South,180,3.0,9.0,100,0.00,,,0.00,Weather View 32 v70,2013-11-16 12:12:00,
2013-11-16 07:17:00,50.0,50.0,30.03,SW,225,4.0,9.0,100,0.00,,,0.00,Weather View 32 v70,2013-11-16 12:17:00,
2013-11-16 07:22:00,50.0,50.0,30.03,SE,135,5.0,9.0,100,0.00,,,0.00,Weather View 32 v70,2013-11-16 12:22:00,
2013-11-16 07:27:00,50.0,50.0,30.03,SSE,157,6.0,9.0,100,0.00,,,0.00,Weather View 32 v70,2013-11-16 12:27:00,
2013-11-16 07:32:00,50.0,50.0,30.03,SSE,157,4.0,9.0,100,0.00,,,0.00,Weather View 32 v70,2013-11-16 12:32:00,
2013-11-16 07:37:00,50.0,50.0,30.03,SE,135,3.0,9.0,100,0.00,,,0.00,Weather View 32 v70,2013-11-16 12:37:00,
2013-11-16 07:42:00,50.0,50.0,30.03,SE,135,4.0,9.0,100,0.00,,,0.00,Weather View 32 v70,2013-11-16 12:42:00,
2013-11-16 07:47:00,50.0,50.0,30.03,South,180,2.0,9.0,100,0.00,,,0.00,Weather View 32 v70,2013-11-16 12:47:00,
2013-11-16 07:52:00,50.0,50.0,30.04,South,180,6.0,9.0,100,0.00,,,0.00,Weather View 32 v70,2013-11-16 12:52:00,
2013-11-16 07:57:00,50.0,50.0,30.04,South,180,2.0,9.0,100,0.00,,,0.00,Weather View 32 v70,2013-11-16 12:57:00,
2013-11-16 08:02:00,50.0,50.0,30.04,SE,135,5.0,11.0,100,0.00,,,0.00,Weather View 32 v70,2013-11-16 13:02:00,
2013-11-16 08:07:00,50.0,50.0,30.04,SSE,157,2.0,11.0,100,0.00,,,0.00,Weather View 32 v70,2013-11-16 13:07:00,
2013-11-16 08:12:00,50.0,50.0,30.03,SE,135,7.0,11.0,100,0.00,,,0.00,Weather View 32 v70,2013-11-16 13:12:00,
2013-11-16 08:17:00,50.0,50.0,30.03,SE,135,2.0,11.0,100,0.00,,,0.00,Weather View 32 v70,2013-11-16 13:17:00,
2013-11-16 08:22:00,50.0,50.0,30.03,SSE,157,1.0,11.0,100,0.00,,,0.00,Weather View 32 v70,2013-11-16 13:22:00,
2013-11-16 08:27:00,50.0,50.0,30.03,SE,135,6.0,11.0,100,0.00,,,0.00,Weather View 32 v70,2013-11-16 13:27:00,
2013-11-16 08:32:00,50.0,50.0,30.03,SSE,157,2.0,11.0,100,0.00,,,0.00,Weather View 32 v70,2013-11-16 13:32:00,
2013-11-16 08:37:00,50.0,50.0,30.03,South,180,2.0,11.0,100,0.00,,,0.00,Weather View 32 v70,2013-11-16 13:37:00,
2013-11-16 08:42:00,50.0,50.0,30.04,South,180,5.0,11.0,100,0.00,,,0.00,Weather View 32 v70,2013-11-16 13:42:00,
2013-11-16 08:47:00,51.0,51.0,30.04,South,180,3.0,11.0,100,0.00,,,0.00,Weather View 32 v70,2013-11-16 13:47:00,
2013-11-16 08:52:00,51.0,51.0,30.05,SSE,157,1.0,11.0,100,0.00,,,0.00,Weather View 32 v70,2013-11-16 13:52:00,
2013-11-16 08:57:00,51.0,51.0,30.04,South,180,7.0,11.0,100,0.00,,,0.00,Weather View 32 v70,2013-11-16 13:57:00,
2013-11-16 09:02:00,51.0,51.0,30.04,South,180,0.0,12.0,100,0.00,,,0.00,Weather View 32 v70,2013-11-16 14:02:00,
2013-11-16 09:07:00,51.0,51.0,30.04,SW,225,6.0,12.0,100,0.00,,,0.00,Weather View 32 v70,2013-11-16 14:07:00,
2013-11-16 09:12:00,51.0,51.0,30.04,SSE,157,4.0,12.0,100,0.00,,,0.00,Weather View 32 v70,2013-11-16 14:12:00,
2013-11-16 09:17:00,51.0,51.0,30.03,SE,135,4.0,12.0,100,0.00,,,0.00,Weather View 32 v70,2013-11-16 14:17:00,
2013-11-16 09:22:00,51.0,51.0,30.04,SSE,157,5.0,12.0,100,0.00,,,0.00,Weather View 32 v70,2013-11-16 14:22:00,
2013-11-16 09:27:00,51.0,51.0,30.03,SE,135,5.0,12.0,100,0.00,,,0.00,Weather View 32 v70,2013-11-16 14:27:00,
2013-11-16 09:32:00,51.0,51.0,30.04,SSE,157,2.0,12.0,100,0.00,,,0.00,Weather View 32 v70,2013-11-16 14:32:00,
2013-11-16 09:37:00,51.0,51.0,30.03,South,180,5.0,12.0,100,0.00,,,0.00,Weather View 32 v70,2013-11-16 14:37:00,
2013-11-16 09:42:00,52.0,52.0,30.03,SSE,157,5.0,12.0,100,0.00,,,0.00,Weather View 32 v70,2013-11-16 14:42:00,
2013-11-16 09:47:00,52.0,52.0,30.04,SSE,157,5.0,12.0,100,0.00,,,0.00,Weather View 32 v70,2013-11-16 14:47:00,
2013-11-16 09:52:00,52.0,52.0,30.03,SSE,157,2.0,12.0,100,0.00,,,0.00,Weather View 32 v70,2013-11-16 14:52:00,
2013-11-16 09:57:00,52.0,52.0,30.03,South,180,4.0,12.0,100,0.00,,,0.00,Weather View 32 v70,2013-11-16 14:57:00,
2013-11-16 10:02:00,52.0,52.0,30.03,South,180,6.0,12.0,100,0.00,,,0.00,Weather View 32 v70,2013-11-16 15:02:00,
2013-11-16 10:07:00,52.0,52.0,30.03,SE,135,9.0,12.0,100,0.00,,,0.00,Weather View 32 v70,2013-11-16 15:07:00,
2013-11-16 10:12:00,52.0,52.0,30.03,SE,135,3.0,12.0,100,0.00,,,0.00,Weather View 32 v70,2013-11-16 15:12:00,
2013-11-16 10:17:00,52.0,52.0,30.03,SSE,157,6.0,12.0,100,0.00,,,0.00,Weather View 32 v70,2013-11-16 15:17:00,
2013-11-16 10:22:00,52.0,52.0,30.03,SSE,157,5.0,12.0,100,0.00,,,0.00,Weather View 32 v70,2013-11-16 15:22:00,
2013-11-16 10:27:00,53.0,53.0,30.03,SSE,157,3.0,12.0,100,0.00,,,0.00,Weather View 32 v70,2013-11-16 15:27:00,
2013-11-16 10:32:00,53.0,53.0,30.03,ESE,112,9.0,12.0,100,0.00,,,0.00,Weather View 32 v70,2013-11-16 15:32:00,
2013-11-16 10:37:00,53.0,53.0,30.02,SE,135,7.0,13.0,100,0.00,,,0.00,Weather View 32 v70,2013-11-16 15:37:00,
2013-11-16 10:42:00,53.0,53.0,30.02,SE,135,2.0,13.0,100,0.00,,,0.00,Weather View 32 v70,2013-11-16 15:42:00,
2013-11-16 10:47:00,53.0,53.0,30.02,SSE,157,7.0,14.0,100,0.00,,,0.00,Weather View 32 v70,2013-11-16 15:47:00,
2013-11-16 10:52:00,54.0,54.0,30.02,SE,135,7.0,14.0,100,0.00,,,0.00,Weather View 32 v70,2013-11-16 15:52:00,
2013-11-16 10:57:00,54.0,54.0,30.02,SE,135,7.0,14.0,100,0.00,,,0.00,Weather View 32 v70,2013-11-16 15:57:00,
2013-11-16 11:02:00,54.0,54.0,30.02,SE,135,5.0,14.0,100,0.00,,,0.00,Weather View 32 v70,2013-11-16 16:02:00,
2013-11-16 11:07:00,54.0,54.0,30.02,SSW,202,5.0,14.0,100,0.00,,,0.00,Weather View 32 v70,2013-11-16 16:07:00,
2013-11-16 11:12:00,54.0,54.0,30.02,SSW,202,6.0,14.0,100,0.00,,,0.00,Weather View 32 v70,2013-11-16 16:12:00,
2013-11-16 11:17:00,54.0,54.0,30.02,SE,135,5.0,14.0,100,0.00,,,0.00,Weather View 32 v70,2013-11-16 16:17:00,
2013-11-16 11:22:00,54.0,54.0,30.01,SE,135,9.0,14.0,100,0.00,,,0.00,Weather View 32 v70,2013-11-16 16:22:00,
2013-11-16 11:27:00,55.0,55.0,30.01,South,180,6.0,14.0,100,0.00,,,0.00,Weather View 32 v70,2013-11-16 16:27:00,
2013-11-16 11:32:00,55.0,55.0,30.01,SSE,157,7.0,14.0,100,0.00,,,0.00,Weather View 32 v70,2013-11-16 16:32:00,
2013-11-16 11:37:00,55.0,55.0,30.01,SSE,157,5.0,14.0,100,0.00,,,0.00,Weather View 32 v70,2013-11-16 16:37:00,
2013-11-16 11:42:00,55.0,55.0,30.01,South,180,3.0,14.0,100,0.00,,,0.00,Weather View 32 v70,2013-11-16 16:42:00,
2013-11-16 11:47:00,55.0,55.0,30.01,SSE,157,8.0,13.0,100,0.00,,,0.00,Weather View 32 v70,2013-11-16 16:47:00,
2013-11-16 11:52:00,56.0,56.0,30.01,SSE,157,7.0,13.0,100,0.00,,,0.00,Weather View 32 v70,2013-11-16 16:52:00,
2013-11-16 11:57:00,56.0,56.0,30.01,South,180,5.0,13.0,100,0.00,,,0.00,Weather View 32 v70,2013-11-16 16:57:00,
2013-11-16 12:02:00,57.0,57.0,30.01,SSW,202,1.0,13.0,100,0.00,,,0.00,Weather View 32 v70,2013-11-16 17:02:00,
2013-11-16 12:07:00,57.0,57.0,30.01,SSW,202,2.0,13.0,100,0.00,,,0.00,Weather View 32 v70,2013-11-16 17:07:00,
2013-11-16 12:12:00,57.0,57.0,30.00,SE,135,7.0,14.0,100,0.00,,,0.00,Weather View 32 v70,2013-11-16 17:12:00,
2013-11-16 12:17:00,57.0,57.0,30.00,South,180,4.0,15.0,100,0.00,,,0.00,Weather View 32 v70,2013-11-16 17:17:00,
2013-11-16 12:22:00,57.0,57.0,30.00,SSE,157,7.0,15.0,100,0.00,,,0.00,Weather View 32 v70,2013-11-16 17:22:00,
2013-11-16 12:27:00,57.0,57.0,29.99,ESE,112,7.0,15.0,100,0.00,,,0.00,Weather View 32 v70,2013-11-16 17:27:00,
2013-11-16 12:32:00,57.0,57.0,29.99,SSW,202,5.0,15.0,100,0.00,,,0.00,Weather View 32 v70,2013-11-16 17:32:00,
2013-11-16 12:37:00,58.0,58.0,29.99,SE,135,1.0,15.0,100,0.00,,,0.00,Weather View 32 v70,2013-11-16 17:37:00,
2013-11-16 12:42:00,58.0,58.0,29.99,SE,135,7.0,15.0,100,0.00,,,0.00,Weather View 32 v70,2013-11-16 17:42:00,
2013-11-16 12:47:00,58.0,58.0,29.98,SSE,157,6.0,15.0,100,0.00,,,0.00,Weather View 32 v70,2013-11-16 17:47:00,
2013-11-16 12:52:00,58.0,58.0,29.98,SSE,157,6.0,15.0,100,0.00,,,0.00,Weather View 32 v70,2013-11-16 17:52:00,
2013-11-16 12:57:00,58.0,58.0,29.98,SE,135,11.0,15.0,100,0.00,,,0.00,Weather View 32 v70,2013-11-16 17:57:00,
2013-11-16 13:02:00,58.0,58.0,29.97,SE,135,6.0,15.0,100,0.00,,,0.00,Weather View 32 v70,2013-11-16 18:02:00,
2013-11-16 13:07:00,59.0,59.0,29.97,SSW,202,3.0,15.0,100,0.00,,,0.00,Weather View 32 v70,2013-11-16 18:07:00,
2013-11-16 13:12:00,60.0,60.0,29.97,SSE,157,3.0,15.0,100,0.00,,,0.00,Weather View 32 v70,2013-11-16 18:12:00,
2013-11-16 13:17:00,60.0,60.0,29.97,SE,135,6.0,14.0,100,0.00,,,0.00,Weather View 32 v70,2013-11-16 18:17:00,
2013-11-16 13:22:00,61.0,60.7,29.97,WSW,247,7.0,14.0,99,0.00,,,0.00,Weather View 32 v70,2013-11-16 18:22:00,
2013-11-16 13:27:00,61.0,59.6,29.97,ESE,112,4.0,14.0,95,0.00,,,0.00,Weather View 32 v70,2013-11-16 18:27:00,
2013-11-16 13:32:00,60.0,59.1,29.97,South,180,6.0,15.0,97,0.00,,,0.00,Weather View 32 v70,2013-11-16 18:32:00,
2013-11-16 13:37:00,60.0,59.7,29.97,South,180,6.0,15.0,99,0.00,,,0.00,Weather View 32 v70,2013-11-16 18:37:00,
2013-11-16 13:42:00,60.0,60.0,29.96,SE,135,9.0,15.0,100,0.00,,,0.00,Weather View 32 v70,2013-11-16 18:42:00,
2013-11-16 13:47:00,60.0,60.0,29.95,East,90,6.0,15.0,100,0.00,,,0.00,Weather View 32 v70,2013-11-16 18:47:00,
2013-11-16 13:52:00,60.0,60.0,29.95,SE,135,6.0,15.0,100,0.00,,,0.00,Weather View 32 v70,2013-11-16 18:52:00,
2013-11-16 13:57:00,60.0,60.0,29.95,SSE,157,8.0,15.0,100,0.00,,,0.00,Weather View 32 v70,2013-11-16 18:57:00,
2013-11-16 14:02:00,60.0,60.0,29.95,SE,135,8.0,15.0,100,0.00,,,0.00,Weather View 32 v70,2013-11-16 19:02:00,
2013-11-16 14:07:00,60.0,60.0,29.95,SSE,157,11.0,15.0,100,0.00,,,0.00,Weather View 32 v70,2013-11-16 19:07:00,
2013-11-16 14:12:00,61.0,60.7,29.95,South,180,5.0,15.0,99,0.00,,,0.00,Weather View 32 v70,2013-11-16 19:12:00,
2013-11-16 14:17:00,61.0,60.7,29.95,South,180,6.0,15.0,99,0.00,,,0.00,Weather View 32 v70,2013-11-16 19:17:00,
2013-11-16 14:22:00,62.0,60.5,29.95,SE,135,6.0,15.0,95,0.00,,,0.00,Weather View 32 v70,2013-11-16 19:22:00,
2013-11-16 14:27:00,62.0,60.2,29.94,SSE,157,9.0,15.0,94,0.00,,,0.00,Weather View 32 v70,2013-11-16 19:27:00,
2013-11-16 14:32:00,62.0,59.6,29.95,SSE,157,6.0,15.0,92,0.00,,,0.00,Weather View 32 v70,2013-11-16 19:32:00,
2013-11-16 14:37:00,62.0,59.6,29.94,SE,135,3.0,15.0,92,0.00,,,0.00,Weather View 32 v70,2013-11-16 19:37:00,
2013-11-16 14:42:00,63.0,60.3,29.94,SSE,157,8.0,15.0,91,0.00,,,0.00,Weather View 32 v70,2013-11-16 19:42:00,
2013-11-16 14:47:00,62.0,59.6,29.94,SE,135,7.0,15.0,92,0.00,,,0.00,Weather View 32 v70,2013-11-16 19:47:00,
2013-11-16 14:52:00,63.0,60.6,29.94,SE,135,6.0,15.0,92,0.00,,,0.00,Weather View 32 v70,2013-11-16 19:52:00,
2013-11-16 14:57:00,63.0,59.7,29.94,ESE,112,6.0,15.0,89,0.00,,,0.00,Weather View 32 v70,2013-11-16 19:57:00,
2013-11-16 15:02:00,63.0,59.4,29.95,SSE,157,8.0,15.0,88,0.00,,,0.00,Weather View 32 v70,2013-11-16 20:02:00,
2013-11-16 15:07:00,63.0,60.0,29.95,South,180,13.0,15.0,90,0.00,,,0.00,Weather View 32 v70,2013-11-16 20:07:00,
2013-11-16 15:12:00,62.0,59.0,29.94,SE,135,13.0,15.0,90,0.00,,,0.00,Weather View 32 v70,2013-11-16 20:12:00,
2013-11-16 15:17:00,62.0,59.6,29.94,South,180,3.0,16.0,92,0.00,,,0.00,Weather View 32 v70,2013-11-16 20:17:00,
2013-11-16 15:22:00,63.0,60.3,29.94,South,180,6.0,16.0,91,0.00,,,0.00,Weather View 32 v70,2013-11-16 20:22:00,
2013-11-16 15:27:00,62.0,59.6,29.94,South,180,7.0,16.0,92,0.00,,,0.00,Weather View 32 v70,2013-11-16 20:27:00,
2013-11-16 15:32:00,62.0,60.2,29.94,South,180,12.0,16.0,94,0.00,,,0.00,Weather View 32 v70,2013-11-16 20:32:00,
2013-11-16 15:37:00,61.0,59.6,29.93,South,180,4.0,16.0,95,0.00,,,0.00,Weather View 32 v70,2013-11-16 20:37:00,
2013-11-16 15:42:00,61.0,60.1,29.93,SE,135,7.0,16.0,97,0.00,,,0.00,Weather View 32 v70,2013-11-16 20:42:00,
2013-11-16 15:47:00,61.0,60.7,29.93,SSE,157,6.0,16.0,99,0.00,,,0.00,Weather View 32 v70,2013-11-16 20:47:00,
2013-11-16 15:52:00,61.0,60.7,29.93,SSE,157,11.0,16.0,99,0.00,,,0.00,Weather View 32 v70,2013-11-16 20:52:00,
2013-11-16 15:57:00,61.0,61.0,29.93,SE,135,4.0,16.0,100,0.00,,,0.00,Weather View 32 v70,2013-11-16 20:57:00,
2013-11-16 16:02:00,61.0,61.0,29.93,South,180,6.0,16.0,100,0.00,,,0.00,Weather View 32 v70,2013-11-16 21:02:00,
2013-11-16 16:07:00,60.0,60.0,29.93,SSW,202,6.0,16.0,100,0.00,,,0.00,Weather View 32 v70,2013-11-16 21:07:00,
2013-11-16 16:12:00,60.0,60.0,29.92,ESE,112,3.0,16.0,100,0.00,,,0.00,Weather View 32 v70,2013-11-16 21:12:00,
2013-11-16 16:17:00,60.0,60.0,29.92,SSE,157,7.0,16.0,100,0.00,,,0.00,Weather View 32 v70,2013-11-16 21:17:00,
2013-11-16 16:22:00,60.0,60.0,29.92,SE,135,10.0,16.0,100,0.00,,,0.00,Weather View 32 v70,2013-11-16 21:22:00,
2013-11-16 16:27:00,60.0,60.0,29.92,SW,225,4.0,16.0,100,0.00,,,0.00,Weather View 32 v70,2013-11-16 21:27:00,
2013-11-16 16:32:00,60.0,60.0,29.91,SSW,202,3.0,16.0,100,0.00,,,0.00,Weather View 32 v70,2013-11-16 21:32:00,
2013-11-16 16:37:00,60.0,60.0,29.92,ESE,112,7.0,16.0,100,0.00,,,0.00,Weather View 32 v70,2013-11-16 21:37:00,
2013-11-16 16:42:00,60.0,60.0,29.92,SSW,202,3.0,16.0,100,0.00,,,0.00,Weather View 32 v70,2013-11-16 21:42:00,
2013-11-16 16:47:00,60.0,60.0,29.92,SSE,157,8.0,16.0,100,0.00,,,0.00,Weather View 32 v70,2013-11-16 21:47:00,
2013-11-16 16:52:00,60.0,60.0,29.92,SSE,157,4.0,16.0,100,0.00,,,0.00,Weather View 32 v70,2013-11-16 21:52:00,
2013-11-16 16:57:00,60.0,60.0,29.92,SSE,157,8.0,16.0,100,0.00,,,0.00,Weather View 32 v70,2013-11-16 21:57:00,
2013-11-16 17:02:00,60.0,60.0,29.91,SE,135,5.0,16.0,100,0.00,,,0.00,Weather View 32 v70,2013-11-16 22:02:00,
2013-11-16 17:07:00,59.0,59.0,29.91,SE,135,3.0,16.0,100,0.00,,,0.00,Weather View 32 v70,2013-11-16 22:07:00,
2013-11-16 17:12:00,59.0,59.0,29.91,South,180,6.0,16.0,100,0.00,,,0.00,Weather View 32 v70,2013-11-16 22:12:00,
2013-11-16 17:17:00,59.0,59.0,29.91,SSE,157,3.0,16.0,100,0.00,,,0.00,Weather View 32 v70,2013-11-16 22:17:00,
2013-11-16 17:22:00,59.0,59.0,29.90,SSE,157,5.0,15.0,100,0.00,,,0.00,Weather View 32 v70,2013-11-16 22:22:00,
2013-11-16 17:27:00,59.0,59.0,29.91,SSE,157,8.0,15.0,100,0.00,,,0.00,Weather View 32 v70,2013-11-16 22:27:00,
2013-11-16 17:32:00,59.0,59.0,29.91,SE,135,7.0,15.0,100,0.00,,,0.00,Weather View 32 v70,2013-11-16 22:32:00,
2013-11-16 17:37:00,59.0,59.0,29.91,SSE,157,6.0,15.0,100,0.00,,,0.00,Weather View 32 v70,2013-11-16 22:37:00,
2013-11-16 17:42:00,59.0,59.0,29.91,SE,135,7.0,13.0,100,0.00,,,0.00,Weather View 32 v70,2013-11-16 22:42:00,
2013-11-16 17:47:00,59.0,59.0,29.90,South,180,4.0,12.0,100,0.00,,,0.00,Weather View 32 v70,2013-11-16 22:47:00,
2013-11-16 17:52:00,59.0,59.0,29.89,SSE,157,6.0,12.0,100,0.00,,,0.00,Weather View 32 v70,2013-11-16 22:52:00,
2013-11-16 17:57:00,60.0,60.0,29.89,SSE,157,7.0,12.0,100,0.00,,,0.00,Weather View 32 v70,2013-11-16 22:57:00,
2013-11-16 18:02:00,60.0,60.0,29.89,ESE,112,3.0,12.0,100,0.00,,,0.00,Weather View 32 v70,2013-11-16 23:02:00,
2013-11-16 18:07:00,60.0,60.0,29.89,SE,135,5.0,12.0,100,0.00,,,0.00,Weather View 32 v70,2013-11-16 23:07:00,
2013-11-16 18:12:00,60.0,60.0,29.89,South,180,4.0,12.0,100,0.00,,,0.00,Weather View 32 v70,2013-11-16 23:12:00,
2013-11-16 18:17:00,60.0,60.0,29.90,SSW,202,5.0,12.0,100,0.00,,,0.00,Weather View 32 v70,2013-11-16 23:17:00,
2013-11-16 18:22:00,60.0,60.0,29.90,SSE,157,4.0,12.0,100,0.00,,,0.00,Weather View 32 v70,2013-11-16 23:22:00,
2013-11-16 18:27:00,60.0,60.0,29.90,SSE,157,6.0,12.0,100,0.00,,,0.00,Weather View 32 v70,2013-11-16 23:27:00,
2013-11-16 18:32:00,60.0,60.0,29.90,SW,225,3.0,12.0,100,0.00,,,0.00,Weather View 32 v70,2013-11-16 23:32:00,
2013-11-16 18:37:00,60.0,60.0,29.89,South,180,7.0,13.0,100,0.00,,,0.00,Weather View 32 v70,2013-11-16 23:37:00,
2013-11-16 18:42:00,60.0,60.0,29.89,South,180,6.0,13.0,100,0.00,,,0.00,Weather View 32 v70,2013-11-16 23:42:00,
2013-11-16 18:47:00,60.0,60.0,29.89,East,90,11.0,13.0,100,0.00,,,0.00,Weather View 32 v70,2013-11-16 23:47:00,
2013-11-16 18:52:00,60.0,60.0,29.89,SE,135,6.0,14.0,100,0.00,,,0.00,Weather View 32 v70,2013-11-16 23:52:00,
2013-11-16 18:57:00,60.0,60.0,29.89,SE,135,6.0,15.0,100,0.00,,,0.00,Weather View 32 v70,2013-11-16 23:57:00,
2013-11-16 19:02:00,60.0,60.0,29.89,SSE,157,2.0,15.0,100,0.00,,,0.00,Weather View 32 v70,2013-11-17 00:02:00,
2013-11-16 19:07:00,60.0,60.0,29.89,South,180,8.0,15.0,100,0.00,,,0.00,Weather View 32 v70,2013-11-17 00:07:00,
2013-11-16 19:12:00,61.0,61.0,29.88,South,180,6.0,15.0,100,0.00,,,0.00,Weather View 32 v70,2013-11-17 00:12:00,
2013-11-16 19:17:00,61.0,61.0,29.88,SW,225,5.0,15.0,100,0.00,,,0.00,Weather View 32 v70,2013-11-17 00:17:00,
2013-11-16 19:22:00,61.0,61.0,29.87,SSE,157,7.0,15.0,100,0.00,,,0.00,Weather View 32 v70,2013-11-17 00:22:00,
2013-11-16 19:27:00,61.0,61.0,29.87,SSE,157,9.0,15.0,100,0.00,,,0.00,Weather View 32 v70,2013-11-17 00:27:00,
2013-11-16 19:32:00,61.0,61.0,29.87,SSW,202,7.0,15.0,100,0.00,,,0.00,Weather View 32 v70,2013-11-17 00:32:00,
2013-11-16 19:37:00,61.0,61.0,29.87,SE,135,6.0,16.0,100,0.00,,,0.00,Weather View 32 v70,2013-11-17 00:37:00,
2013-11-16 19:42:00,61.0,61.0,29.87,SSE,157,6.0,16.0,100,0.00,,,0.00,Weather View 32 v70,2013-11-17 00:42:00,
2013-11-16 19:47:00,61.0,61.0,29.87,SSE,157,7.0,16.0,100,0.00,,,0.00,Weather View 32 v70,2013-11-17 00:47:00,
2013-11-16 19:52:00,61.0,61.0,29.87,South,180,2.0,16.0,100,0.00,,,0.00,Weather View 32 v70,2013-11-17 00:52:00,
2013-11-16 19:57:00,61.0,61.0,29.87,South,180,6.0,16.0,100,0.00,,,0.00,Weather View 32 v70,2013-11-17 00:57:00,
2013-11-16 20:02:00,61.0,61.0,29.88,South,180,5.0,16.0,100,0.00,,,0.00,Weather View 32 v70,2013-11-17 01:02:00,
2013-11-16 20:07:00,61.0,61.0,29.88,SE,135,7.0,16.0,100,0.00,,,0.00,Weather View 32 v70,2013-11-17 01:07:00,
2013-11-16 20:12:00,60.0,60.0,29.87,SE,135,6.0,16.0,100,0.00,,,0.00,Weather View 32 v70,2013-11-17 01:12:00,
2013-11-16 20:17:00,60.0,60.0,29.87,SSE,157,9.0,16.0,100,0.00,,,0.00,Weather View 32 v70,2013-11-17 01:17:00,
2013-11-16 20:22:00,60.0,60.0,29.87,SSE,157,7.0,16.0,100,0.00,,,0.00,Weather View 32 v70,2013-11-17 01:22:00,
2013-11-16 20:27:00,60.0,60.0,29.87,SE,135,6.0,16.0,100,0.00,,,0.00,Weather View 32 v70,2013-11-17 01:27:00,
2013-11-16 20:32:00,60.0,60.0,29.87,SE,135,6.0,16.0,100,0.00,,,0.00,Weather View 32 v70,2013-11-17 01:32:00,
2013-11-16 20:37:00,60.0,60.0,29.86,SE,135,5.0,14.0,100,0.00,,,0.00,Weather View 32 v70,2013-11-17 01:37:00,
2013-11-16 20:42:00,60.0,60.0,29.86,SSE,157,2.0,14.0,100,0.00,,,0.00,Weather View 32 v70,2013-11-17 01:42:00,
2013-11-16 20:47:00,60.0,60.0,29.86,South,180,6.0,14.0,100,0.00,,,0.00,Weather View 32 v70,2013-11-17 01:47:00,
2013-11-16 20:52:00,60.0,60.0,29.86,SSE,157,12.0,14.0,100,0.00,,,0.00,Weather View 32 v70,2013-11-17 01:52:00,
2013-11-16 20:57:00,60.0,60.0,29.86,South,180,4.0,14.0,100,0.00,,,0.00,Weather View 32 v70,2013-11-17 01:57:00,
2013-11-16 21:02:00,61.0,61.0,29.85,South,180,8.0,14.0,100,0.00,,,0.00,Weather View 32 v70,2013-11-17 02:02:00,
2013-11-16 21:07:00,61.0,61.0,29.85,SSE,157,7.0,14.0,100,0.00,,,0.00,Weather View 32 v70,2013-11-17 02:07:00,
2013-11-16 21:12:00,61.0,61.0,29.85,SSW,202,1.0,14.0,100,0.00,,,0.00,Weather View 32 v70,2013-11-17 02:12:00,
2013-11-16 21:17:00,61.0,61.0,29.86,SE,135,6.0,14.0,100,0.00,,,0.00,Weather View 32 v70,2013-11-17 02:17:00,
2013-11-16 21:22:00,61.0,61.0,29.86,SSE,157,5.0,14.0,100,0.00,,,0.00,Weather View 32 v70,2013-11-17 02:22:00,
2013-11-16 21:27:00,61.0,61.0,29.87,SSW,202,4.0,14.0,100,0.00,,,0.00,Weather View 32 v70,2013-11-17 02:27:00,
2013-11-16 21:32:00,61.0,61.0,29.87,South,180,4.0,14.0,100,0.00,,,0.00,Weather View 32 v70,2013-11-17 02:32:00,
2013-11-16 21:37:00,61.0,61.0,29.87,South,180,2.0,14.0,100,0.00,,,0.00,Weather View 32 v70,2013-11-17 02:37:00,
2013-11-16 21:42:00,61.0,61.0,29.88,SE,135,4.0,14.0,100,0.00,,,0.00,Weather View 32 v70,2013-11-17 02:42:00,
2013-11-16 21:47:00,61.0,61.0,29.88,South,180,5.0,14.0,100,0.00,,,0.00,Weather View 32 v70,2013-11-17 02:47:00,
2013-11-16 21:52:00,61.0,61.0,29.88,SE,135,1.0,14.0,100,0.00,,,0.00,Weather View 32 v70,2013-11-17 02:52:00,
2013-11-16 21:57:00,61.0,61.0,29.88,SSE,157,6.0,11.0,100,0.00,,,0.00,Weather View 32 v70,2013-11-17 02:57:00,
2013-11-16 22:02:00,61.0,61.0,29.89,South,180,2.0,11.0,100,0.00,,,0.00,Weather View 32 v70,2013-11-17 03:02:00,
2013-11-16 22:07:00,62.0,62.0,29.89,South,180,1.0,11.0,100,0.00,,,0.00,Weather View 32 v70,2013-11-17 03:07:00,
2013-11-16 22:12:00,62.0,62.0,29.89,SW,225,1.0,11.0,100,0.00,,,0.00,Weather View 32 v70,2013-11-17 03:12:00,
2013-11-16 22:18:00,61.0,61.0,29.89,South,180,2.0,11.0,100,0.00,,,0.00,Weather View 32 v70,2013-11-17 03:18:00,
2013-11-16 22:23:00,61.0,61.0,29.88,SW,225,2.0,11.0,100,0.01,,,0.01,Weather View 32 v70,2013-11-17 03:23:00,
2013-11-16 22:28:00,61.0,61.0,29.87,SSE,157,6.0,11.0,100,0.01,,,0.01,Weather View 32 v70,2013-11-17 03:28:00,
2013-11-16 22:33:00,61.0,61.0,29.88,SSE,157,3.0,11.0,100,0.02,,,0.02,Weather View 32 v70,2013-11-17 03:33:00,
2013-11-16 22:38:00,61.0,61.0,29.88,SSW,202,3.0,11.0,100,0.02,,,0.02,Weather View 32 v70,2013-11-17 03:38:00,
2013-11-16 22:43:00,61.0,61.0,29.87,SSE,157,3.0,11.0,100,0.02,,,0.02,Weather View 32 v70,2013-11-17 03:43:00,
2013-11-16 22:48:00,61.0,61.0,29.87,SE,135,3.0,11.0,100,0.02,,,0.02,Weather View 32 v70,2013-11-17 03:48:00,
2013-11-16 22:53:00,61.0,61.0,29.87,ESE,112,1.0,11.0,100,0.03,,,0.03,Weather View 32 v70,2013-11-17 03:53:00,
2013-11-16 22:58:00,61.0,61.0,29.86,SSE,157,4.0,9.0,100,0.04,,,0.04,Weather View 32 v70,2013-11-17 03:58:00,
2013-11-16 23:03:00,61.0,61.0,29.87,SE,135,0.0,9.0,100,0.00,,,0.00,Weather View 32 v70,2013-11-17 04:03:00,
2013-11-16 23:08:00,61.0,61.0,29.86,ESE,112,3.0,9.0,100,0.00,,,0.00,Weather View 32 v70,2013-11-17 04:08:00,
2013-11-16 23:13:00,60.0,60.0,29.85,SSE,157,4.0,9.0,100,0.01,,,0.01,Weather View 32 v70,2013-11-17 04:13:00,
2013-11-16 23:18:00,60.0,60.0,29.85,SE,135,2.0,9.0,100,0.01,,,0.01,Weather View 32 v70,2013-11-17 04:18:00,
2013-11-16 23:23:00,60.0,60.0,29.85,SE,135,2.0,9.0,100,0.00,,,0.01,Weather View 32 v70,2013-11-17 04:23:00,
2013-11-16 23:28:00,60.0,60.0,29.84,SSE,157,3.0,9.0,100,0.01,,,0.02,Weather View 32 v70,2013-11-17 04:28:00,
2013-11-16 23:33:00,60.0,60.0,29.84,SSE,157,3.0,9.0,100,0.00,,,0.02,Weather View 32 v70,2013-11-17 04:33:00,
2013-11-16 23:38:00,60.0,60.0,29.83,SE,135,2.0,9.0,100,0.01,,,0.03,Weather View 32 v70,2013-11-17 04:38:00,
2013-11-16 23:43:00,61.0,61.0,29.82,SSE,157,7.0,9.0,100,0.01,,,0.03,Weather View 32 v70,2013-11-17 04:43:00,
2013-11-16 23:48:00,61.0,61.0,29.82,SSE,157,6.0,11.0,100,0.01,,,0.03,Weather View 32 v70,2013-11-17 04:48:00,
2013-11-16 23:53:00,61.0,61.0,29.82,SE,135,6.0,11.0,100,0.00,,,0.03,Weather View 32 v70,2013-11-17 04:53:00,
2013-11-16 23:58:00,61.0,61.0,29.81,SE,135,6.0,11.0,100,-0.01,,,0.03,Weather View 32 v70,2013-11-17 04:58:00,